Terminal Aerodrome Forecast
Issued by NWS Grand Forks, ND

Home | Current Version | Previous Version | Text Only | Print | Product List | Glossary On
Versions: 1 2 3 4 5 6 7 8 9 10 11 12 13 14 15
000
FTUS43 KFGF 051100
TAFFAR
TAF
KFAR 051139Z 0512/0612 13007KT P6SM SCT250
     FM051600 15015G22KT P6SM SCT120
     FM060100 15008KT P6SM SCT100=

USA.gov is the U.S. government's official web portal to all federal, state and local government web resources and services.